Weather in Logovskoye

Russia / Altai Krai     53°29′53″N   84°11′54″E
temp.,
°C
wind,
m/s
gust,
m/s
humid.,
%
clouds,
%
prec.,
mm/h
press.,
hPa
HPBL,
m
17 october, sun
sun1701:00+3ene227255 0.0 102610
04:00+2ene227587 0.0 102516
07:00+1e228186 0.0 102611
10:00+4se227075 0.0 1026112
13:00+9s225266 0.0 1025375
16:00+10sw224974 0.0 1025544
19:00+6s116323 0.0 102510
22:00+5ssw227112 0.0 102611
18 october, mon
mon1801:00+4ssw227753 0.0 102614
04:00+3sw22807 0.0 102616
07:00+1sw22830 0.0 102717
10:00+3sw2474100 0.0 1028136
13:00+7sw3455100 0.0 1027495
16:00+9wsw34485 0.0 1027718
19:00+5ssw22620 0.0 102710
22:00+4s22674 0.0 102813
19 october, tue
tue1901:00+3s22705 0.0 102811
04:00+2sse22721 0.0 102810
07:00+2se22745 0.0 102812
10:00+4se226453 0.0 102899
13:00+9se224756 0.0 1027417
16:00+10e124699 0.0 1026484
19:00+6e3362100 0.0 102624
22:00+5e3365100 0.0 102627
20 october, wed
wed2001:00+4e336787 0.0 102430
04:00+3e33705 0.0 102431
07:00+3e33725 0.0 102335
10:00+5ese35655 0.0 1022132
13:00+11se34495 0.0 1020385
16:00+13se23452 0.0 1019430
19:00+8se33635 0.0 101825
22:00+6se22685 0.0 101817
21 october, thu
thu2101:00+5se336312 0.0 101721
04:00+4se335922 0.0 101728
07:00+4sse33636 0.0 101630
10:00+7sse375459 0.0 1016147
13:00+13s463469 0.0 1014318
16:00+14s473593 0.0 1013315
19:00+10s4944100 0.0 1013143
22:00+8ssw375081 0.0 1014107